When you browse on this site, cookies collect data to enhance your experience and personalize the content and advertising you see.
Visit our Privacy Policy to learn more. By continuing to use the site, you agree to this use of cookies and data.
  • In Hungary
  • List of Countries
  • For 7 days
  • Water Temperature
  • Satellite Maps
  • Weather Map
  • News
  • Weather Widgets
  • user-avatar
    Login

    Hourly Weather Marin

    Today, 21 November, Wednesday

    Time Temperature Precipitation Wind Pressure Humidity
    00:00 +9°C° 0.2 mm 2 mps 745 mmHg 97%
    01:00 +9°C° 0.2 mm 2 mps 745 mmHg 98%
    02:00 +9°C° 0.2 mm 2 mps 745 mmHg 98%
    03:00 +9°C° 1 mm 3 mps 745 mmHg 97%
    04:00 +9°C° 1 mm 3 mps 745 mmHg 97%
    05:00 +8°C° 0 mm 4 mps 745 mmHg 97%
    06:00 +8°C° 0.8 mm 4 mps 745 mmHg 95%
    07:00 +9°C° 0.8 mm 5 mps 746 mmHg 92%
    08:00 +9°C° 0.8 mm 5 mps 746 mmHg 90%
    09:00 +10°C° 0.6 mm 5 mps 746 mmHg 88%
    10:00 +10°C° 0.6 mm 5 mps 746 mmHg 87%
    11:00 +10°C° 0 mm 6 mps 747 mmHg 85%
    12:00 +10°C° 0.5 mm 6 mps 747 mmHg 85%
    13:00 +10°C° 0.5 mm 5 mps 747 mmHg 85%
    14:00 +10°C° 0.5 mm 5 mps 747 mmHg 86%
    15:00 +9°C° 0.4 mm 5 mps 747 mmHg 89%
    16:00 +8°C° 0.4 mm 5 mps 748 mmHg 91%
    17:00 +7°C° 0.4 mm 4 mps 748 mmHg 94%
    18:00 +7°C° 0.4 mm 5 mps 748 mmHg 95%
    19:00 +7°C° 0.4 mm 5 mps 749 mmHg 95%
    20:00 +7°C° 0.4 mm 5 mps 749 mmHg 95%
    21:00 +7°C° 0.6 mm 5 mps 749 mmHg 95%
    22:00 +7°C° 0.6 mm 5 mps 749 mmHg 95%
    23:00 +7°C° 0.6 mm 5 mps 749 mmHg 95%

    Tomorrow, 22 November, Thursday

    Time Temperature Precipitation Wind Pressure Humidity
    00:00 +7°C° 0.5 mm 5 mps 749 mmHg 95%
    01:00 +7°C° 0.5 mm 5 mps 749 mmHg 95%
    02:00 +7°C° 0.5 mm 5 mps 749 mmHg 95%
    03:00 +7°C° 0.4 mm 5 mps 749 mmHg 95%
    04:00 +7°C° 0.4 mm 5 mps 749 mmHg 95%
    05:00 +7°C° 0.4 mm 5 mps 749 mmHg 96%
    06:00 +7°C° 0.2 mm 5 mps 749 mmHg 94%
    07:00 +8°C° 0.2 mm 6 mps 749 mmHg 93%
    08:00 +8°C° 0.2 mm 6 mps 750 mmHg 92%
    09:00 +9°C° 0.2 mm 6 mps 750 mmHg 88%
    10:00 +10°C° 0.2 mm 7 mps 750 mmHg 84%
    11:00 +11°C° 0.2 mm 7 mps 750 mmHg 79%
    12:00 +11°C° 0.5 mm 7 mps 749 mmHg 79%
    13:00 +11°C° 0.5 mm 6 mps 749 mmHg 79%
    14:00 +11°C° 0.5 mm 6 mps 749 mmHg 79%
    15:00 +10°C° 0.8 mm 5 mps 749 mmHg 84%
    16:00 +10°C° 0.8 mm 4 mps 749 mmHg 89%
    17:00 +10°C° 0.8 mm 3 mps 750 mmHg 93%
    18:00 +9°C° 0.3 mm 3 mps 750 mmHg 94%
    19:00 +9°C° 0.3 mm 2 mps 750 mmHg 95%
    20:00 +9°C° 0.3 mm 2 mps 751 mmHg 96%
    21:00 +8°C° 0.1 mm 2 mps 751 mmHg 97%
    22:00 +8°C° 0.1 mm 2 mps 751 mmHg 97%
    23:00 +8°C° 0.1 mm 2 mps 751 mmHg 97%

    Day after tomorrow, 23 November, Friday

    Time Temperature Precipitation Wind Pressure Humidity
    00:00 +8°C° 0.4 mm 2 mps 751 mmHg 97%
    01:00 +7°C° 0.4 mm 2 mps 751 mmHg 98%
    02:00 +7°C° 0.4 mm 3 mps 751 mmHg 98%
    03:00 +7°C° 0.5 mm 3 mps 751 mmHg 97%
    04:00 +7°C° 0.5 mm 3 mps 751 mmHg 97%
    05:00 +7°C° 0.5 mm 3 mps 751 mmHg 97%
    06:00 +8°C° 0.7 mm 3 mps 751 mmHg 96%
    07:00 +8°C° 0.7 mm 3 mps 752 mmHg 95%
    08:00 +8°C° 0.7 mm 4 mps 752 mmHg 95%
    09:00 +8°C° 0.6 mm 4 mps 752 mmHg 92%
    10:00 +10°C° 0.6 mm 4 mps 752 mmHg 90%
    11:00 +11°C° 0.6 mm 4 mps 752 mmHg 87%
    12:00 +11°C° 0.4 mm 4 mps 752 mmHg 87%
    13:00 +11°C° 0.4 mm 4 mps 752 mmHg 87%
    14:00 +11°C° 0.4 mm 4 mps 752 mmHg 87%
    15:00 +10°C° 0.3 mm 4 mps 752 mmHg 90%
    16:00 +9°C° 0.3 mm 3 mps 752 mmHg 93%
    17:00 +9°C° 0.3 mm 3 mps 752 mmHg 96%
    18:00 +9°C° 0.2 mm 3 mps 753 mmHg 96%
    19:00 +8°C° 0.2 mm 3 mps 753 mmHg 97%
    20:00 +8°C° 0.2 mm 3 mps 753 mmHg 97%
    21:00 +8°C° 0.3 mm 3 mps 753 mmHg 97%
    22:00 +8°C° 0.3 mm 3 mps 753 mmHg 96%
    23:00 +9°C° 0.3 mm 3 mps 753 mmHg 96%

    24 November, Saturday

    Time Temperature Precipitation Wind Pressure Humidity
    00:00 +9°C° 0.5 mm 3 mps 753 mmHg 96%
    01:00 +8°C° 0.5 mm 4 mps 752 mmHg 96%
    02:00 +8°C° 0.5 mm 4 mps 752 mmHg 96%
    03:00 +8°C° 0.3 mm 4 mps 752 mmHg 96%
    04:00 +8°C° 0.3 mm 5 mps 751 mmHg 96%
    05:00 +8°C° 0.3 mm 5 mps 751 mmHg 96%
    06:00 +8°C° 0.1 mm 5 mps 751 mmHg 95%
    07:00 +9°C° 0.1 mm 6 mps 751 mmHg 94%
    08:00 +9°C° 0.1 mm 6 mps 751 mmHg 93%
    09:00 +10°C° 0.2 mm 6 mps 750 mmHg 91%
    10:00 +10°C° 0.2 mm 7 mps 749 mmHg 88%
    11:00 +11°C° 0.2 mm 8 mps 749 mmHg 86%
    12:00 +10°C° 0.7 mm 7 mps 748 mmHg 88%
    13:00 +10°C° 0.7 mm 7 mps 747 mmHg 90%
    14:00 +10°C° 0.7 mm 7 mps 747 mmHg 92%
    15:00 +10°C° 0.7 mm 6 mps 746 mmHg 93%
    16:00 +10°C° 0.7 mm 6 mps 746 mmHg 94%
    17:00 +10°C° 0.7 mm 5 mps 746 mmHg 95%
    18:00 +10°C° 0.5 mm 5 mps 747 mmHg 95%
    19:00 +11°C° 0.5 mm 4 mps 747 mmHg 96%
    20:00 +11°C° 0.5 mm 4 mps 748 mmHg 96%
    21:00 +11°C° 0.3 mm 3 mps 748 mmHg 97%
    22:00 +11°C° 0.3 mm 3 mps 749 mmHg 97%
    23:00 +11°C° 0.3 mm 3 mps 749 mmHg 98%

    25 November, Sunday

    Time Temperature Precipitation Wind Pressure Humidity
    00:00 +10°C° 0 mm 3 mps 749 mmHg 98%
    01:00 +10°C° 0 mm 2 mps 749 mmHg 98%
    02:00 +9°C° 0 mm 2 mps 749 mmHg 98%
    03:00 +10°C° 0 mm 1 mps 749 mmHg 98%
    04:00 +10°C° 0 mm 1 mps 749 mmHg 97%
    05:00 +8°C° 0 mm 0 mps 749 mmHg 97%
    06:00 +10°C° 0 mm 1 mps 750 mmHg 97%
    07:00 +9°C° 0 mm 2 mps 750 mmHg 96%
    08:00 +9°C° 0 mm 2 mps 750 mmHg 95%
    09:00 +9°C° 0.4 mm 3 mps 750 mmHg 95%
    10:00 +10°C° 0.4 mm 4 mps 750 mmHg 94%
    11:00 +9°C° 0.4 mm 5 mps 749 mmHg 93%
    12:00 +9°C° 0.2 mm 6 mps 749 mmHg 93%
    13:00 +9°C° 0.2 mm 6 mps 748 mmHg 93%
    14:00 +9°C° 0.2 mm 7 mps 747 mmHg 93%
    15:00 +9°C° 0.3 mm 7 mps 748 mmHg 91%
    16:00 +10°C° 0.3 mm 8 mps 749 mmHg 89%
    17:00 +10°C° 0.3 mm 8 mps 749 mmHg 86%
    18:00 +9°C° 0 mm 7 mps 751 mmHg 86%
    19:00 +9°C° 0 mm 6 mps 752 mmHg 86%
    20:00 +8°C° 0 mm 5 mps 754 mmHg 85%
    21:00 +8°C° 0 mm 5 mps 754 mmHg 87%
    22:00 +7°C° 0 mm 5 mps 755 mmHg 88%
    23:00 +7°C° 0 mm 4 mps 755 mmHg 89%

    26 November, Monday

    Time Temperature Precipitation Wind Pressure Humidity
    00:00 +7°C° 0 mm 4 mps 756 mmHg 90%
    01:00 +8°C° 0 mm 4 mps 756 mmHg 90%
    02:00 +8°C° 0 mm 4 mps 756 mmHg 91%
    03:00 +8°C° 0 mm 4 mps 756 mmHg 91%
    04:00 +8°C° 0 mm 4 mps 756 mmHg 91%
    05:00 +10°C° 0 mm 3 mps 757 mmHg 91%
    06:00 +10°C° 0.1 mm 4 mps 757 mmHg 91%
    07:00 +10°C° 0.1 mm 4 mps 757 mmHg 92%
    08:00 +11°C° 0.1 mm 4 mps 758 mmHg 93%
    09:00 +11°C° 0.2 mm 4 mps 758 mmHg 92%
    10:00 +10°C° 0.2 mm 5 mps 758 mmHg 91%
    11:00 +12°C° 0.2 mm 5 mps 758 mmHg 90%
    12:00 +12°C° 0.2 mm 5 mps 758 mmHg 91%
    13:00 +12°C° 0.2 mm 4 mps 758 mmHg 92%
    14:00 +12°C° 0.2 mm 4 mps 757 mmHg 92%
    15:00 +11°C° 0.1 mm 4 mps 758 mmHg 94%
    16:00 +11°C° 0.1 mm 4 mps 758 mmHg 95%
    17:00 +11°C° 0.1 mm 4 mps 758 mmHg 96%
    18:00 +11°C° 0.1 mm 4 mps 758 mmHg 96%
    19:00 +10°C° 0.1 mm 4 mps 758 mmHg 96%
    20:00 +10°C° 0.1 mm 4 mps 758 mmHg 96%
    21:00 +10°C° 0 mm 4 mps 758 mmHg 96%
    22:00 +8°C° 0 mm 4 mps 758 mmHg 96%
    23:00 +8°C° 0 mm 5 mps 758 mmHg 96%
    Show more